Lexington Weather

Lexington, Massachusetts, USA

26°F
12/12/2019 5:19pm 
  • Lexington Conditions: Partly cloudy
  • Temperature: 25.9°F / -3.4°CColder 2.0°F than last hour.
  • Dew Point: 19.9°F 
  • Relative Humidity: 78%Increased 6.0% since last hour.
  • Wind: Wind from WSW WSW 1 mph, 10-min avg: 1 mph, gust: 2 mph
  • Barometer: 30.67 in Steady
  • Visibility: 10 miles
  • Snow Today: 0.0 in
  •   

Regional Weather Roundup
for Boston / Norton, MA

        
000
ASUS41 KBOX 120400
RWRBOX

REGIONAL WEATHER ROUNDUP
NATIONAL WEATHER SERVICE BOSTON/NORTON MA
1100 PM EST WED DEC 11 2019

NOTE:  "FAIR" INDICATES FEW OR NO CLOUDS BELOW 12,000 FEET WITH NO 
SIGNIFICANT WEATHER AND/OR OBSTRUCTIONS TO VISIBILITY.

MAZALL-120500-
EASTERN MASSACHUSETTS
  
CITY           SKY/WX    TMP DP  RH WIND       PRES   REMARKS
BOSTON         FAIR      33  22  63 W15G23    30.33R WCI  23          
BEVERLY        FAIR      26  21  81 SW7       30.30R WCI  18          
LAWRENCE       FAIR      25  21  85 SW8       30.32R WCI  16          
BEDFORD        FAIR      25  20  81 SW5       30.31R WCI  19          
BLUE HILL        N/A     24  22  91 W16       30.28R WCI  11          
NORWOOD        FAIR      27  21  78 SW3       30.33R                  
MARSHFIELD     NOT AVBL                                               
PLYMOUTH       FAIR      24  21  88 SW7       30.34R WCI  16          
TAUNTON        FAIR      27  22  81 SW5       30.34R WCI  22          
NEW BEDFORD    FAIR      30  24  78 W9        30.34R WCI  22          
$$

MAZALL-120500-
CAPE COD AND THE ISLANDS
  
CITY           SKY/WX    TMP DP  RH WIND       PRES   REMARKS
FALMOUTH       CLEAR     27  23  86 W8        30.33R WCI  18          
HYANNIS        NOT AVBL                                               
CHATHAM        FAIR      27  24  89 W3        30.34R                  
PROVINCETOWN   FAIR      33  28  81 W21G29    30.33R WCI  21          
NANTUCKET      FAIR      34  26  72 NW10      30.34R WCI  26          
MARTHAS VNYRD  FAIR      34  23  64 NW10G20   30.34R WCI  26          
$$
 
MAZALL-120500-
CENTRAL AND WESTERN MASSACHUSETTS
  
CITY           SKY/WX    TMP DP  RH WIND       PRES   REMARKS
WORCESTER      FAIR      25  16  68 W14       30.27R WCI  13          
FITCHBURG      FAIR      19  16  88 CALM      30.32R                  
ORANGE         FAIR      29  12  49 W10G17    30.34R WCI  20          
SPRINGFIELD    PTCLDY    28  15  58 NW15      30.37R WCI  16          
WESTFIELD      FAIR      29  15  56 NW20      30.38R WCI  16          
NORTH ADAMS    FAIR      25   8  48 W17G24    30.36R WCI  12          
PITTSFIELD     FAIR      23   9  55 NW15G23   30.32R WCI  10          
$$
 
RIZALL-120500-
RHODE ISLAND
  
CITY           SKY/WX    TMP DP  RH WIND       PRES   REMARKS
PROVIDENCE     FAIR      28  23  81 W7        30.35R WCI  21          
NEWPORT        FAIR      32  23  69 W10G17    30.34R WCI  24          
BLOCK ISLAND   FAIR      32  21  64 NW15G30   30.37R WCI  22          
SMITHFIELD     FAIR      24  23  96 W6        30.32R WCI  17          
WESTERLY       FAIR      32  21  64 W3        30.37R                  
$$
 
CTZALL-120500-
CONNECTICUT
  
CITY           SKY/WX    TMP DP  RH WIND       PRES   REMARKS
BRADLEY INTL   FAIR      29  18  63 NW20      30.37R WCI  16          
HARTFORD       FAIR      31  18  58 W7        30.39R WCI  24          
BRIDGEPORT     FAIR      32  18  56 W12       30.42R WCI  23          
DANBURY        FAIR      28  15  58 W10       30.42R WCI  19          
GROTON         NOT AVBL                                               
NEW HAVEN      FAIR      35  20  54 W8        30.40R WCI  29          
CHESTER        FAIR      30  18  59 W10G16    30.36R WCI  21          
MERIDEN        FAIR      30  16  56 NW12      30.39R WCI  20          
WILLIMANTIC    FAIR      28  21  75 W5        30.37R WCI  23          
OXFORD         FAIR      25  18  74 W7        30.38R WCI  17          
$$

MEZ002-015-021-024-NHZ003-005-008-011-012-014-VTZ005-008-120500-
NORTHERN NEW ENGLAND
  
CITY           SKY/WX    TMP DP  RH WIND       PRES   REMARKS
PORTLAND ME    FAIR      29  15  56 SW8       30.24S WCI  21          
BANGOR ME      FAIR      20  15  81 S5        30.19S WCI  13          
CONCORD NH     FAIR      27  15  61 W9        30.27R WCI  18          
MANCHESTER NH  FAIR      28  17  63 W6        30.27R WCI  22          
NASHUA NH      FAIR      26  22  84 W7        30.31R WCI  18          
PORTSMOUTH NH  CLEAR     24  19  81 SW5       30.26R WCI  18          
JAFFREY NH     FAIR      26  11  52 W12G21    30.27R WCI  16          
KEENE NH       FAIR      28  11  48 NW10      30.31R WCI  19          
BURLINGTON VT  FAIR      24   7  48 W15G29    30.34R WCI  11          
MT. WASHINGTON BLWGSNOW  -2  -2 100 W76G93      N/A  VSB 0   WCI -39  
$$

NYZ052-076-120500-
EASTERN NEW YORK
  
CITY           SKY/WX    TMP DP  RH WIND       PRES   REMARKS
ALBANY         FAIR      27   8  44 W18G25    30.43R WCI  14          
NEW YORK CITY  FAIR      33  13  43 W17       30.45R WCI  22          
$$
 
ANZALL-120500-
MARINE OBSERVATIONS
  
STATION/POSITION TIME  TEMP    WIND        PRES    VSBY  WAVE
                       AIR SEA DIR/SP/G                  HT/PER
                 (UTC) (F)     (DEG/KT/KT) (MB)    (MI)  (FT/S)
BOSTON BUOY      0250   34 47  230/ 16/ 17 1025.0          2/10
BUZZARDS BAY     0300   37     290/ 28/ 32 1026.8R
NANTUCKET SOUND  0340      43              1027.3R
MASS BAY-STELLWA 0304   35 46  280/ 17/ 21 1023.9R  1 7/8  3/ 4
ISLE OF SHOALS   0300   32     240/ 21/ 23 1024.4R
S OF BLOCK IS    0330      53                N/A           6/ 5
$$

......................KEY.........................
  SKY/WX - SKY CONDITION/PRESENT WEATHER
  TMP    - TEMPERATURE IN FAHRENHEIT
  DWPT   - DEWPOINT IN FAHRENHEIT
  RH     - RELATIVE HUMIDITY IN PERCENT
  WIND   - DIRECTION AND SPEED IN MPH
  PRES   - MEAN SEA LEVEL PRESSURE IN INCHES OF HG
  WCI    - WIND CHILL INDEX
  VSB    - VISIBILITY IN MILES
  HX     - HEAT INDEX
  TC     - TEMPERATURE IN CELSIUS
  VRB    - VARIABLE WIND DIRECTION
  N/A    - NOT AVAILABLE
  
      

Other recent Regional Weather Roundups

Thu Dec 12, 5:10pm

Thu Dec 12, 5:00pm

Thu Dec 12, 4:10pm

Thu Dec 12, 4:01pm

Thu Dec 12, 3:10pm

Thu Dec 12, 3:00pm

Thu Dec 12, 2:10pm

Thu Dec 12, 2:01pm

Thu Dec 12, 1:10pm

Thu Dec 12, 1:00pm

Thu Dec 12, 12:10pm

Thu Dec 12, 12:00pm

Thu Dec 12, 11:10am

Thu Dec 12, 11:00am

Thu Dec 12, 10:10am

Thu Dec 12, 8:10am

Thu Dec 12, 8:00am

Thu Dec 12, 7:10am

Thu Dec 12, 7:00am

Thu Dec 12, 6:10am

Thu Dec 12, 6:00am

Thu Dec 12, 5:10am

Thu Dec 12, 5:00am

Thu Dec 12, 4:10am

Thu Dec 12, 4:00am

Thu Dec 12, 3:10am

Thu Dec 12, 3:00am

Thu Dec 12, 2:10am

Thu Dec 12, 2:00am

Thu Dec 12, 1:10am

Thu Dec 12, 1:00am

Thu Dec 12, 12:10am

Thu Dec 12, 12:00am

Wed Dec 11, 11:10pm

Wed Dec 11, 10:10pm

Wed Dec 11, 10:00pm

Wed Dec 11, 9:10pm

Wed Dec 11, 9:00pm

Wed Dec 11, 8:10pm

Wed Dec 11, 8:00pm

Wed Dec 11, 7:10pm

Wed Dec 11, 7:00pm

Wed Dec 11, 6:10pm

Wed Dec 11, 6:00pm

Wed Dec 11, 5:10pm

Wed Dec 11, 5:01pm

Wed Dec 11, 4:10pm

Wed Dec 11, 4:00pm

Wed Dec 11, 3:10pm

Wed Dec 11, 3:01pm

Wed Dec 11, 2:10pm

Wed Dec 11, 2:00pm

Wed Dec 11, 1:10pm

Wed Dec 11, 1:00pm

Wed Dec 11, 12:10pm

Wed Dec 11, 12:00pm

Wed Dec 11, 11:10am

Wed Dec 11, 11:00am

Wed Dec 11, 10:10am

Wed Dec 11, 10:00am

Wed Dec 11, 9:10am

Wed Dec 11, 9:00am

Wed Dec 11, 8:10am

Wed Dec 11, 8:00am

Wed Dec 11, 7:10am

Wed Dec 11, 7:00am

Wed Dec 11, 6:10am

Wed Dec 11, 6:00am

Wed Dec 11, 5:10am

Wed Dec 11, 5:00am

Wed Dec 11, 4:10am

Wed Dec 11, 4:00am

Wed Dec 11, 3:10am

Wed Dec 11, 3:01am

Wed Dec 11, 2:10am

Wed Dec 11, 2:01am

Wed Dec 11, 1:10am

Wed Dec 11, 1:00am

Wed Dec 11, 12:10am

Wed Dec 11, 12:00am

Tue Dec 10, 11:10pm

Tue Dec 10, 11:00pm

Tue Dec 10, 10:10pm

Tue Dec 10, 10:00pm

Tue Dec 10, 9:10pm

Tue Dec 10, 9:01pm

Tue Dec 10, 8:10pm

Tue Dec 10, 8:00pm

Tue Dec 10, 7:10pm

Tue Dec 10, 7:01pm

Tue Dec 10, 6:10pm

Tue Dec 10, 6:01pm

Tue Dec 10, 5:10pm

Tue Dec 10, 5:00pm

Tue Dec 10, 4:10pm

Tue Dec 10, 4:01pm

Tue Dec 10, 3:10pm

Tue Dec 10, 3:01pm

Tue Dec 10, 2:10pm

Tue Dec 10, 2:01pm

Tue Dec 10, 1:10pm

Tue Dec 10, 1:00pm

Tue Dec 10, 12:10pm

Tue Dec 10, 12:00pm

Tue Dec 10, 11:10am

Tue Dec 10, 11:00am

Tue Dec 10, 10:10am

Tue Dec 10, 10:00am

Tue Dec 10, 9:10am

Tue Dec 10, 9:01am

Tue Dec 10, 8:10am

Tue Dec 10, 8:00am

Tue Dec 10, 7:10am

Tue Dec 10, 7:00am

Tue Dec 10, 6:10am

Tue Dec 10, 6:00am

Tue Dec 10, 5:10am

Tue Dec 10, 5:00am

Tue Dec 10, 4:10am

Tue Dec 10, 4:00am

Tue Dec 10, 3:10am

Tue Dec 10, 3:00am

Tue Dec 10, 2:10am

Tue Dec 10, 2:01am

Tue Dec 10, 1:10am

Tue Dec 10, 1:00am

Tue Dec 10, 12:10am

Tue Dec 10, 12:01am

Mon Dec 9, 11:10pm

Mon Dec 9, 11:01pm

Mon Dec 9, 10:10pm

Mon Dec 9, 10:00pm

Mon Dec 9, 9:10pm

Mon Dec 9, 9:01pm

Mon Dec 9, 8:10pm

Mon Dec 9, 8:01pm

Mon Dec 9, 7:10pm

Mon Dec 9, 7:00pm

Mon Dec 9, 6:10pm

Mon Dec 9, 6:00pm

Meta data:

ID: 1d65b4bd-958d-44fa-b850-3de5e7b608d1
Link: https://api.weather.gov/products/1d65b4bd-958d-44fa-b850-3de5e7b608d1